History for KNYNEWYO639

Roof of a 1 story trailer, New York, NY — Current Conditions
Daily Summary for September 21, 2018
  Current: High: Low: Average:
Temperature: 74.2°F 74.2°F 69.9°F 72.1°F
Dew Point: 66.0°F 66.0°F 61.0°F 62.9°F
Humidity: 75% 78% 71% 75%
Wind Speed: 4.0mph 19.4mph - 6.0mph
Wind Gust: 12.0mph 19.0mph - -
Wind: East - - ENE
Pressure: 30.20in 30.34in 30.20in -
Precipitation: 0.00in      
Statistics for the rest of the month
    High: Low: Average:
Temperature:   94.9°F 58.2°F 75.9°F
Dew Point:   79.0°F 49.0°F 68.3°F
Humidity:   99.0% 51.0% 80.4%
Wind Speed:   35.4mph from the West - 5.9mph
Wind Gust:   36.0mph from the West - -
Wind:   - - South
Pressure:   30.40in 29.80in -
Precipitation:   0.00in    
KNYNEWYO639 Weather Graph
Tabular Data for September 21, 2018
Time Temp. Dew Point Pressure Wind Gust Humidity Rainfall
00:04 70.2°F 62°F 30.33in 9mph 76% 0in
00:09 70.1°F 62°F 30.34in 11mph 77% 0in
00:14 70.1°F 62°F 30.34in 8mph 77% 0in
00:19 70.1°F 62°F 30.34in 7mph 76% 0in
00:24 70°F 62°F 30.33in 9mph 76% 0in
00:29 70°F 62°F 30.34in 8mph 76% 0in
00:34 70°F 62°F 30.33in 10mph 76% 0in
00:39 70°F 62°F 30.34in 9mph 76% 0in
00:44 70°F 62°F 30.34in 7mph 76% 0in
00:49 70°F 62°F 30.34in 7mph 76% 0in
00:54 70°F 62°F 30.34in 10mph 76% 0in
00:59 70°F 62°F 30.33in 12mph 76% 0in
01:04 69.9°F 62°F 30.33in 9mph 76% 0in
01:09 69.9°F 62°F 30.33in 9mph 76% 0in
01:14 70°F 62°F 30.33in 11mph 76% 0in
01:19 70°F 62°F 30.33in 10mph 76% 0in
01:24 70°F 62°F 30.33in 9mph 76% 0in
01:29 70°F 62°F 30.33in 8mph 75% 0in
01:34 70°F 62°F 30.32in 6mph 75% 0in
01:39 70.1°F 62°F 30.32in 11mph 76% 0in
01:44 70°F 62°F 30.33in 9mph 76% 0in
01:49 69.9°F 62°F 30.33in 10mph 76% 0in
01:54 69.9°F 62°F 30.32in 11mph 76% 0in
01:59 69.9°F 62°F 30.32in 9mph 75% 0in
02:04 70.1°F 62°F 30.32in 5mph 75% 0in
02:09 70.1°F 62°F 30.32in 7mph 75% 0in
02:14 70°F 62°F 30.32in 10mph 75% 0in
02:19 70°F 62°F 30.31in 7mph 75% 0in
02:24 70°F 62°F 30.32in 11mph 75% 0in
02:29 70°F 62°F 30.32in 9mph 75% 0in
02:34 70.1°F 62°F 30.32in 8mph 76% 0in
02:39 70°F 62°F 30.32in 12mph 76% 0in
02:44 70°F 62°F 30.31in 11mph 76% 0in
02:49 70°F 62°F 30.31in 8mph 76% 0in
02:54 70.1°F 62°F 30.31in 9mph 76% 0in
02:59 70.3°F 62°F 30.31in 7mph 77% 0in
03:04 70.2°F 62°F 30.31in 6mph 76% 0in
03:09 70.1°F 62°F 30.31in 7mph 76% 0in
03:14 70°F 62°F 30.31in 7mph 76% 0in
03:19 70.1°F 62°F 30.32in 7mph 76% 0in
03:24 70.2°F 62°F 30.32in 8mph 76% 0in
03:29 70.2°F 62°F 30.32in 7mph 76% 0in
03:34 70.1°F 62°F 30.31in 12mph 75% 0in
03:39 70°F 62°F 30.31in 10mph 75% 0in
03:44 70.1°F 62°F 30.31in 7mph 76% 0in
03:49 70.1°F 62°F 30.31in 7mph 76% 0in
03:54 70.2°F 62°F 30.31in 6mph 76% 0in
03:59 70.2°F 62°F 30.32in 9mph 76% 0in
04:04 70.1°F 62°F 30.32in 8mph 76% 0in
04:09 70.1°F 62°F 30.32in 10mph 76% 0in
04:14 70.1°F 62°F 30.32in 7mph 76% 0in
04:19 70.1°F 62°F 30.32in 8mph 75% 0in
04:24 70.1°F 62°F 30.32in 10mph 75% 0in
04:29 70.1°F 62°F 30.32in 8mph 75% 0in
04:34 70.1°F 62°F 30.32in 7mph 75% 0in
04:39 70.2°F 62°F 30.32in 5mph 75% 0in
04:44 70.3°F 62°F 30.32in 8mph 75% 0in
04:49 70.3°F 62°F 30.32in 7mph 75% 0in
04:54 70.3°F 62°F 30.32in 7mph 75% 0in
04:59 70.2°F 62°F 30.32in 8mph 75% 0in
05:04 70.3°F 62°F 30.32in 10mph 76% 0in
05:09 70.2°F 62°F 30.32in 10mph 76% 0in
05:14 70.2°F 62°F 30.32in 7mph 75% 0in
05:19 70.3°F 62°F 30.32in 10mph 75% 0in
05:24 70.3°F 62°F 30.32in 9mph 75% 0in
05:29 70.3°F 62°F 30.33in 10mph 75% 0in
05:34 70.2°F 62°F 30.32in 9mph 75% 0in
05:39 70.2°F 62°F 30.32in 9mph 75% 0in
05:44 70.3°F 62°F 30.33in 7mph 75% 0in
05:49 70.4°F 62°F 30.33in 9mph 75% 0in
05:54 70.4°F 62°F 30.33in 8mph 75% 0in
05:59 70.5°F 62°F 30.33in 9mph 75% 0in
06:04 70.5°F 62°F 30.33in 8mph 75% 0in
06:09 70.6°F 62°F 30.32in 7mph 75% 0in
06:14 70.7°F 62°F 30.33in 11mph 75% 0in
06:19 70.6°F 62°F 30.33in 10mph 75% 0in
06:24 70.6°F 62°F 30.33in 13mph 75% 0in
06:29 70.6°F 62°F 30.33in 13mph 75% 0in
06:34 70.6°F 62°F 30.33in 15mph 76% 0in
06:39 70.5°F 63°F 30.33in 11mph 77% 0in
06:44 70.5°F 63°F 30.33in 11mph 77% 0in
06:49 70.4°F 62°F 30.33in 11mph 76% 0in
06:54 70.4°F 62°F 30.33in 11mph 76% 0in
06:59 70.5°F 62°F 30.33in 11mph 75% 0in
07:04 70.5°F 62°F 30.33in 12mph 75% 0in
07:09 70.4°F 62°F 30.33in 14mph 75% 0in
07:14 70.3°F 62°F 30.33in 13mph 75% 0in
07:19 70.4°F 62°F 30.32in 13mph 74% 0in
07:24 70.6°F 62°F 30.33in 15mph 74% 0in
07:29 70.8°F 62°F 30.33in 13mph 74% 0in
07:34 70.7°F 62°F 30.33in 9mph 74% 0in
07:39 70.7°F 62°F 30.33in 8mph 74% 0in
07:44 70.8°F 62°F 30.33in 10mph 74% 0in
07:49 70.9°F 62°F 30.34in 7mph 74% 0in
07:54 71°F 62°F 30.33in 11mph 75% 0in
07:59 71°F 62°F 30.33in 11mph 75% 0in
08:04 71.1°F 62°F 30.33in 7mph 75% 0in
08:09 71.1°F 62°F 30.33in 6mph 75% 0in
08:14 71.1°F 62°F 30.33in 6mph 74% 0in
08:19 71.1°F 62°F 30.33in 6mph 74% 0in
08:24 71.1°F 62°F 30.33in 5mph 74% 0in
08:29 71.1°F 62°F 30.33in 7mph 74% 0in
08:34 71.1°F 62°F 30.33in 7mph 74% 0in
08:39 71.1°F 62°F 30.33in 7mph 74% 0in
08:44 71.1°F 62°F 30.33in 4mph 74% 0in
08:49 71.3°F 62°F 30.33in 7mph 74% 0in
08:54 71.5°F 63°F 30.33in 16mph 74% 0in
08:59 71.5°F 63°F 30.33in 7mph 74% 0in
09:04 71.6°F 63°F 30.32in 7mph 74% 0in
09:09 71.6°F 63°F 30.33in 8mph 74% 0in
09:14 71.6°F 63°F 30.33in 10mph 74% 0in
09:19 71.7°F 63°F 30.33in 7mph 74% 0in
09:24 71.7°F 63°F 30.32in 11mph 74% 0in
09:29 71.7°F 63°F 30.32in 8mph 74% 0in
09:34 71.7°F 63°F 30.32in 8mph 75% 0in
09:39 71.7°F 63°F 30.32in 8mph 74% 0in
09:44 71.8°F 63°F 30.32in 8mph 74% 0in
09:49 71.9°F 63°F 30.32in 9mph 74% 0in
09:54 71.9°F 63°F 30.32in 11mph 75% 0in
09:59 71.7°F 63°F 30.32in 16mph 75% 0in
10:04 71.6°F 63°F 30.32in 12mph 76% 0in
10:09 71.5°F 64°F 30.32in 18mph 77% 0in
10:14 71.4°F 63°F 30.32in 16mph 77% 0in
10:19 71.3°F 64°F 30.32in 15mph 78% 0in
10:24 71.3°F 64°F 30.32in 18mph 78% 0in
10:29 71.3°F 64°F 30.32in 14mph 78% 0in
10:34 71.4°F 64°F 30.31in 15mph 78% 0in
10:39 71.5°F 64°F 30.30in 14mph 78% 0in
10:44 71.6°F 64°F 30.31in 15mph 78% 0in
10:49 71.6°F 64°F 30.31in 15mph 78% 0in
10:54 71.7°F 64°F 30.31in 11mph 78% 0in
10:59 71.9°F 65°F 30.30in 14mph 78% 0in
11:04 71.9°F 65°F 30.30in 13mph 78% 0in
11:09 71.9°F 65°F 30.30in 13mph 78% 0in
11:14 71.8°F 64°F 30.30in 15mph 78% 0in
11:19 71.7°F 64°F 30.30in 14mph 78% 0in
11:24 71.8°F 64°F 30.29in 11mph 78% 0in
11:29 71.8°F 64°F 30.29in 13mph 77% 0in
11:34 71.9°F 64°F 30.29in 15mph 77% 0in
11:39 72.1°F 64°F 30.29in 13mph 77% 0in
11:44 72.3°F 65°F 30.28in 15mph 77% 0in
11:49 72.5°F 65°F 30.28in 9mph 77% 0in
11:54 72.6°F 64°F 30.28in 9mph 75% 0in
11:59 72.9°F 64°F 30.27in 10mph 74% 0in
12:04 73.1°F 64°F 30.28in 14mph 73% 0in
12:09 73°F 64°F 30.27in 13mph 73% 0in
12:14 73.2°F 64°F 30.27in 14mph 73% 0in
12:19 73.3°F 64°F 30.27in 13mph 72% 0in
12:24 73.3°F 64°F 30.27in 11mph 72% 0in
12:29 73.4°F 64°F 30.27in 8mph 72% 0in
12:34 73.4°F 63°F 30.27in 12mph 71% 0in
12:39 73.5°F 64°F 30.26in 14mph 71% 0in
12:44 73.5°F 64°F 30.26in 14mph 71% 0in
12:49 73.6°F 64°F 30.26in 13mph 71% 0in
12:54 73.6°F 64°F 30.26in 14mph 71% 0in
12:59 73.5°F 64°F 30.25in 16mph 71% 0in
13:04 73.5°F 64°F 30.26in 12mph 71% 0in
13:09 73.5°F 64°F 30.25in 12mph 72% 0in
13:14 73.5°F 64°F 30.25in 11mph 72% 0in
13:19 73.6°F 64°F 30.25in 10mph 72% 0in
13:24 73.8°F 64°F 30.24in 11mph 72% 0in
13:29 73.9°F 64°F 30.25in 11mph 72% 0in
13:34 73.8°F 64°F 30.24in 12mph 72% 0in
13:39 73.8°F 64°F 30.24in 10mph 73% 0in
13:44 73.9°F 65°F 30.24in 11mph 73% 0in
13:49 73.9°F 65°F 30.23in 11mph 73% 0in
13:54 73.9°F 65°F 30.24in 14mph 73% 0in
13:59 73.8°F 65°F 30.24in 14mph 74% 0in
14:04 73.6°F 65°F 30.23in 11mph 74% 0in
14:09 73.5°F 65°F 30.23in 13mph 74% 0in
14:14 73.5°F 65°F 30.22in 14mph 75% 0in
14:19 73.4°F 65°F 30.22in 13mph 75% 0in
14:24 73.5°F 65°F 30.22in 12mph 75% 0in
14:29 73.5°F 66°F 30.21in 15mph 76% 0in
14:34 73.5°F 66°F 30.21in 15mph 76% 0in
14:39 73.6°F 66°F 30.21in 10mph 76% 0in
14:44 73.7°F 66°F 30.22in 19mph 76% 0in
14:49 73.8°F 66°F 30.21in 14mph 76% 0in
14:54 73.9°F 66°F 30.21in 17mph 76% 0in
14:59 74°F 66°F 30.20in 14mph 76% 0in
15:04 74.1°F 66°F 30.20in 12mph 76% 0in
15:09 74.2°F 66°F 30.20in 14mph 76% 0in
Comma Delimited File
Powered by Weather Underground, Inc.